User: anonymous   Login
Location: Donald C. Martin Observatory
(38.3885°N, 82.3916°W)
Time: 00:59:49
(UTC-04:00)
Language:

Cosmos 1484 Rocket - Orbit

View from above orbital plane
View from above orbital plane
View from above satellite
View from above satellite

Ground track
Ground track

The orbit data is extracted from the following two-line orbital elements,

1 14208U 83075B   17141.93311620 +.00000294 +00000-0 +21415-4 0  9999
2 14208 097.3411 153.5790 0038298 219.8629 139.9787 15.10367338843241
Epoch (UTC): 21 May 2017 22:23:41
Eccentricity: 0.0038298
inclination: 97.3411°
perigee height: 508 km
apogee height: 561 km
right ascension of ascending node: 153.5790°
argument of perigee: 219.8629°
revolutions per day: 15.10367338
mean anomaly at epoch: 139.9787°
orbit number at epoch: 84324

The dashed part of the orbit path shows where the satellite is in the earth's shadow,  

DLR